Time,TemperatureF,DewpointF,PressureIn,WindDirection,WindDirectionDegrees,WindSpeedMPH,WindSpeedGustMPH,Humidity,HourlyPrecipIn,Conditions,Clouds,dailyrainin,SoftwareType,DateUTC
2013-08-13 00:00:00,67.2,66.9,29.94,North,0,0.0,0.0,99,0.00,,,0.00,WUHU216DAVISVP2,2013-08-13 04:00:00,
2013-08-13 00:01:00,67.2,66.9,30.06,NE,35,0.0,0.0,99,0.00,SCT,,0.32,WeatherDisplay:10.37,2013-08-13 04:01:00,
2013-08-13 00:02:00,67.2,66.9,30.06,NE,35,1.0,1.2,99,0.00,RA,,0.00,WeatherDisplay:10.37,2013-08-13 04:02:00,
2013-08-13 00:07:00,67.1,66.8,30.05,NE,35,0.0,0.0,99,0.00,OVC,,0.00,WeatherDisplay:10.37,2013-08-13 04:07:00,
2013-08-13 00:12:00,67.1,66.8,30.05,NE,35,0.0,0.0,99,0.00,OVC,,0.00,WeatherDisplay:10.37,2013-08-13 04:12:00,
2013-08-13 00:17:00,67.0,66.7,30.05,NE,35,0.0,1.1,99,0.00,OVC,,0.00,WeatherDisplay:10.37,2013-08-13 04:17:00,
2013-08-13 00:22:00,66.9,66.6,30.05,NE,35,0.0,0.0,99,0.00,OVC,,0.00,WeatherDisplay:10.37,2013-08-13 04:22:00,
2013-08-13 00:27:00,66.8,66.5,30.05,NE,34,0.0,0.0,99,0.00,OVC,,0.00,WeatherDisplay:10.37,2013-08-13 04:27:00,
2013-08-13 00:30:00,66.8,66.5,29.93,NE,45,0.0,1.0,99,0.00,,,0.00,WUHU216DAVISVP2,2013-08-13 04:30:00,
2013-08-13 00:32:00,66.8,66.5,30.05,NE,34,0.0,0.0,99,0.00,OVC,,0.00,WeatherDisplay:10.37,2013-08-13 04:32:00,
2013-08-13 00:37:00,66.7,66.4,30.04,NE,35,0.0,0.0,99,0.00,OVC,,0.00,WeatherDisplay:10.37,2013-08-13 04:37:00,
2013-08-13 00:42:00,66.6,66.3,30.04,NE,34,0.0,0.0,99,0.00,OVC,,0.00,WeatherDisplay:10.37,2013-08-13 04:42:00,
2013-08-13 00:47:00,66.6,66.3,30.04,NE,35,0.0,0.0,99,0.00,OVC,,0.00,WeatherDisplay:10.37,2013-08-13 04:47:00,
2013-08-13 00:52:00,66.6,66.3,30.04,NE,35,0.0,0.0,99,0.00,OVC,,0.00,WeatherDisplay:10.37,2013-08-13 04:52:00,
2013-08-13 00:57:00,66.5,66.2,30.03,NE,35,0.0,0.0,99,0.00,OVC,,0.00,WeatherDisplay:10.37,2013-08-13 04:57:00,
2013-08-13 01:00:00,66.5,66.2,29.92,NE,45,0.0,1.0,99,0.00,,,0.00,WUHU216DAVISVP2,2013-08-13 05:00:00,
2013-08-13 01:02:00,66.5,66.2,30.03,NE,35,0.0,0.0,99,0.00,,,0.00,WeatherDisplay:10.37,2013-08-13 05:02:00,
2013-08-13 01:07:00,66.5,66.2,30.03,NE,35,0.0,0.0,99,0.00,,,0.00,WeatherDisplay:10.37,2013-08-13 05:07:00,
2013-08-13 01:12:00,66.4,66.1,30.03,NE,35,0.0,0.0,99,0.00,,,0.00,WeatherDisplay:10.37,2013-08-13 05:12:00,
2013-08-13 01:17:00,66.4,66.1,30.02,NE,35,0.0,0.0,99,0.00,,,0.00,WeatherDisplay:10.37,2013-08-13 05:17:00,
2013-08-13 01:22:00,66.3,66.0,30.02,NE,34,0.0,0.0,99,0.00,,,0.00,WeatherDisplay:10.37,2013-08-13 05:22:00,
2013-08-13 01:27:00,66.2,65.9,30.02,NE,35,0.0,0.0,99,0.00,,,0.00,WeatherDisplay:10.37,2013-08-13 05:27:00,
2013-08-13 01:30:00,66.2,65.9,29.91,North,0,0.0,0.0,99,0.00,,,0.00,WUHU216DAVISVP2,2013-08-13 05:30:00,
2013-08-13 01:32:00,66.2,65.9,30.02,NE,35,0.0,0.0,99,0.00,,,0.00,WeatherDisplay:10.37,2013-08-13 05:32:00,
2013-08-13 01:37:00,66.1,65.8,30.02,NE,35,0.0,0.0,99,0.00,,,0.00,WeatherDisplay:10.37,2013-08-13 05:37:00,
2013-08-13 01:42:00,66.1,65.8,30.02,NE,35,0.0,0.0,99,0.00,,,0.00,WeatherDisplay:10.37,2013-08-13 05:42:00,
2013-08-13 01:47:00,66.0,65.7,30.02,NE,35,0.0,0.0,99,0.00,,,0.00,WeatherDisplay:10.37,2013-08-13 05:47:00,
2013-08-13 01:52:00,66.0,65.7,30.02,NE,35,0.0,0.0,99,0.00,,,0.00,WeatherDisplay:10.37,2013-08-13 05:52:00,
2013-08-13 01:57:00,66.0,65.7,30.02,NE,35,0.0,0.0,99,0.00,,,0.00,WeatherDisplay:10.37,2013-08-13 05:57:00,
2013-08-13 02:00:00,66.0,65.7,29.91,North,0,0.0,0.0,99,0.00,,,0.00,WUHU216DAVISVP2,2013-08-13 06:00:00,
2013-08-13 02:02:00,66.0,65.7,30.02,NE,35,0.0,0.0,99,0.00,,,0.00,WeatherDisplay:10.37,2013-08-13 06:02:00,
2013-08-13 02:07:00,65.9,65.6,30.02,NE,35,0.0,0.0,99,0.00,OVC,,0.00,WeatherDisplay:10.37,2013-08-13 06:07:00,
2013-08-13 02:12:00,65.8,65.5,30.02,NE,34,0.0,0.0,99,0.00,OVC,,0.00,WeatherDisplay:10.37,2013-08-13 06:12:00,
2013-08-13 02:17:00,65.8,65.5,30.02,NE,35,0.0,0.0,99,0.00,OVC,,0.00,WeatherDisplay:10.37,2013-08-13 06:17:00,
2013-08-13 02:22:00,65.7,65.4,30.01,NE,34,0.0,0.0,99,0.00,OVC,,0.00,WeatherDisplay:10.37,2013-08-13 06:22:00,
2013-08-13 02:27:00,65.6,65.3,30.02,NE,34,0.0,0.0,99,0.00,OVC,,0.00,WeatherDisplay:10.37,2013-08-13 06:27:00,
2013-08-13 02:30:00,65.6,65.3,29.91,North,0,0.0,0.0,99,0.00,,,0.00,WUHU216DAVISVP2,2013-08-13 06:30:00,
2013-08-13 02:32:00,65.6,65.3,30.02,NE,35,0.0,0.0,99,0.00,OVC,,0.00,WeatherDisplay:10.37,2013-08-13 06:32:00,
2013-08-13 02:37:00,65.5,65.2,30.02,NE,35,0.0,0.0,99,0.00,OVC,,0.00,WeatherDisplay:10.37,2013-08-13 06:37:00,
2013-08-13 02:42:00,65.4,65.1,30.02,NE,35,0.0,0.0,99,0.00,OVC,,0.00,WeatherDisplay:10.37,2013-08-13 06:42:00,
2013-08-13 02:47:00,65.4,65.1,30.02,NE,35,0.0,0.0,99,0.00,OVC,,0.00,WeatherDisplay:10.37,2013-08-13 06:47:00,
2013-08-13 02:52:00,65.3,65.0,30.02,NE,35,0.0,0.0,99,0.00,OVC,,0.00,WeatherDisplay:10.37,2013-08-13 06:52:00,
2013-08-13 02:57:00,65.3,65.0,30.02,NE,35,0.0,0.0,99,0.00,OVC,,0.00,WeatherDisplay:10.37,2013-08-13 06:57:00,
2013-08-13 03:00:00,65.2,64.9,29.90,North,0,0.0,0.0,99,0.00,,,0.00,WUHU216DAVISVP2,2013-08-13 07:00:00,
2013-08-13 03:02:00,65.2,64.9,30.02,NE,35,0.0,0.0,99,0.00,,,0.00,WeatherDisplay:10.37,2013-08-13 07:02:00,
2013-08-13 03:07:00,65.2,64.9,30.02,NE,35,0.0,0.0,99,0.00,,,0.00,WeatherDisplay:10.37,2013-08-13 07:07:00,
2013-08-13 03:12:00,65.1,64.8,30.01,NE,35,0.2,1.2,99,0.00,,,0.00,WeatherDisplay:10.37,2013-08-13 07:12:00,
2013-08-13 03:17:00,65.0,64.7,30.01,NE,34,0.0,0.0,99,0.00,,,0.00,WeatherDisplay:10.37,2013-08-13 07:17:00,
2013-08-13 03:22:00,65.0,64.7,30.01,NE,35,0.0,0.0,99,0.00,,,0.00,WeatherDisplay:10.37,2013-08-13 07:22:00,
2013-08-13 03:27:00,65.0,64.7,30.01,NE,35,0.0,0.0,99,0.00,,,0.00,WeatherDisplay:10.37,2013-08-13 07:27:00,
2013-08-13 03:30:00,65.0,64.7,29.89,NE,45,0.0,1.0,99,0.00,,,0.00,WUHU216DAVISVP2,2013-08-13 07:30:00,
2013-08-13 03:32:00,65.0,64.7,30.00,NE,34,0.0,0.0,99,0.00,,,0.00,WeatherDisplay:10.37,2013-08-13 07:32:00,
2013-08-13 03:37:00,65.1,64.8,30.00,NE,34,0.0,0.0,99,0.00,,,0.00,WeatherDisplay:10.37,2013-08-13 07:37:00,
2013-08-13 03:42:00,65.1,64.8,30.00,NE,35,0.0,0.0,99,0.00,,,0.00,WeatherDisplay:10.37,2013-08-13 07:42:00,
2013-08-13 03:47:00,65.1,64.8,30.00,NE,35,0.0,0.0,99,0.00,,,0.00,WeatherDisplay:10.37,2013-08-13 07:47:00,
2013-08-13 03:52:00,65.1,64.8,30.00,NE,35,0.7,1.2,99,0.00,,,0.00,WeatherDisplay:10.37,2013-08-13 07:52:00,
2013-08-13 03:57:00,65.2,64.9,29.99,NE,35,0.0,0.0,99,0.00,,,0.00,WeatherDisplay:10.37,2013-08-13 07:57:00,
2013-08-13 04:00:00,65.2,64.9,29.88,NE,45,0.0,1.0,99,0.00,,,0.00,WUHU216DAVISVP2,2013-08-13 08:00:00,
2013-08-13 04:02:00,65.2,64.9,29.99,NE,35,0.2,1.2,99,0.00,,,0.00,WeatherDisplay:10.37,2013-08-13 08:02:00,
2013-08-13 04:07:00,65.3,65.0,29.99,NE,35,0.0,0.0,99,0.00,,,0.00,WeatherDisplay:10.37,2013-08-13 08:07:00,
2013-08-13 04:12:00,65.3,65.0,29.99,NE,35,0.0,0.0,99,0.00,,,0.00,WeatherDisplay:10.37,2013-08-13 08:12:00,
2013-08-13 04:17:00,65.3,65.0,29.99,NE,35,0.0,0.0,99,0.00,,,0.00,WeatherDisplay:10.37,2013-08-13 08:17:00,
2013-08-13 04:22:00,65.4,65.4,30.00,NE,35,0.0,0.0,100,0.00,,,0.00,WeatherDisplay:10.37,2013-08-13 08:22:00,
2013-08-13 04:27:00,65.4,65.4,30.00,NE,35,0.0,0.0,100,0.00,,,0.00,WeatherDisplay:10.37,2013-08-13 08:27:00,
2013-08-13 04:30:00,65.4,65.4,29.88,NE,45,0.0,1.0,100,0.00,,,0.00,WUHU216DAVISVP2,2013-08-13 08:30:00,
2013-08-13 04:32:00,65.5,65.5,30.00,NE,35,0.0,0.0,100,0.00,,,0.00,WeatherDisplay:10.37,2013-08-13 08:32:00,
2013-08-13 04:37:00,65.5,65.5,30.00,NE,34,0.0,0.0,100,0.00,,,0.00,WeatherDisplay:10.37,2013-08-13 08:37:00,
2013-08-13 04:42:00,65.6,65.6,29.99,NE,35,0.0,0.0,100,0.00,,,0.00,WeatherDisplay:10.37,2013-08-13 08:42:00,
2013-08-13 04:47:00,65.6,65.6,29.99,NE,35,0.0,0.0,100,0.00,,,0.00,WeatherDisplay:10.37,2013-08-13 08:47:00,
2013-08-13 04:52:00,65.5,65.2,29.99,NE,35,0.0,0.0,99,0.00,,,0.00,WeatherDisplay:10.37,2013-08-13 08:52:00,
2013-08-13 04:57:00,65.5,65.2,29.98,NE,35,0.0,0.0,99,0.00,,,0.00,WeatherDisplay:10.37,2013-08-13 08:57:00,
2013-08-13 05:00:00,65.5,65.2,29.86,North,0,0.0,0.0,99,0.00,,,0.00,WUHU216DAVISVP2,2013-08-13 09:00:00,
2013-08-13 05:02:00,65.5,65.2,29.98,NE,35,0.0,0.0,99,0.00,OVC,,0.00,WeatherDisplay:10.37,2013-08-13 09:02:00,
2013-08-13 05:07:00,65.4,65.1,29.97,NE,35,0.0,0.0,99,0.00,OVC,,0.00,WeatherDisplay:10.37,2013-08-13 09:07:00,
2013-08-13 05:12:00,65.3,65.0,29.98,NE,35,0.8,1.1,99,0.00,OVC,,0.00,WeatherDisplay:10.37,2013-08-13 09:12:00,
2013-08-13 05:17:00,65.2,64.9,29.98,NE,34,0.0,1.1,99,0.00,OVC,,0.00,WeatherDisplay:10.37,2013-08-13 09:17:00,
2013-08-13 05:22:00,65.1,64.8,29.98,NE,35,0.2,1.2,99,0.00,OVC,,0.00,WeatherDisplay:10.37,2013-08-13 09:22:00,
2013-08-13 05:27:00,65.0,64.7,29.98,West,276,0.0,1.1,99,0.00,OVC,,0.00,WeatherDisplay:10.37,2013-08-13 09:27:00,
2013-08-13 05:30:00,64.9,64.6,29.86,NE,45,0.0,2.0,99,0.00,,,0.00,WUHU216DAVISVP2,2013-08-13 09:30:00,
2013-08-13 05:32:00,64.9,64.6,29.97,West,276,0.0,0.0,99,0.00,OVC,,0.00,WeatherDisplay:10.37,2013-08-13 09:32:00,
2013-08-13 05:37:00,64.8,64.5,29.97,West,276,0.0,0.0,99,0.00,OVC,,0.00,WeatherDisplay:10.37,2013-08-13 09:37:00,
2013-08-13 05:42:00,64.8,64.5,29.97,West,276,0.0,0.0,99,0.00,OVC,,0.00,WeatherDisplay:10.37,2013-08-13 09:42:00,
2013-08-13 05:47:00,64.7,64.4,29.98,West,276,0.0,0.0,99,0.00,OVC,,0.00,WeatherDisplay:10.37,2013-08-13 09:47:00,
2013-08-13 05:52:00,64.6,64.3,29.98,West,276,0.0,0.0,99,0.00,OVC,,0.00,WeatherDisplay:10.37,2013-08-13 09:52:00,
2013-08-13 05:57:00,64.6,64.3,29.98,West,276,1.3,1.3,99,0.00,OVC,,0.00,WeatherDisplay:10.37,2013-08-13 09:57:00,
2013-08-13 06:00:00,64.5,64.2,29.87,West,270,0.0,1.0,99,0.00,,,0.00,WUHU216DAVISVP2,2013-08-13 10:00:00,
2013-08-13 06:02:00,64.5,64.2,29.98,West,276,0.0,0.0,99,0.00,OVC,,0.00,WeatherDisplay:10.37,2013-08-13 10:02:00,
2013-08-13 06:07:00,64.5,64.2,29.98,West,276,0.0,0.0,99,0.00,OVC,,0.00,WeatherDisplay:10.37,2013-08-13 10:07:00,
2013-08-13 06:12:00,64.3,64.0,29.98,West,276,0.0,0.0,99,0.00,OVC,,0.00,WeatherDisplay:10.37,2013-08-13 10:12:00,
2013-08-13 06:17:00,64.3,64.0,29.98,West,276,0.0,0.0,99,0.00,OVC,,0.00,WeatherDisplay:10.37,2013-08-13 10:17:00,
2013-08-13 06:22:00,64.2,63.9,29.98,West,276,1.7,2.3,99,0.00,OVC,,0.00,WeatherDisplay:10.37,2013-08-13 10:22:00,
2013-08-13 06:27:00,64.2,63.9,29.98,West,276,0.0,0.0,99,0.00,OVC,,0.00,WeatherDisplay:10.37,2013-08-13 10:27:00,
2013-08-13 06:30:00,64.1,63.8,29.86,West,270,0.0,2.0,99,0.00,,,0.00,WUHU216DAVISVP2,2013-08-13 10:30:00,
2013-08-13 06:32:00,64.2,63.9,29.98,West,276,0.0,0.0,99,0.00,OVC,,0.00,WeatherDisplay:10.37,2013-08-13 10:32:00,
2013-08-13 06:37:00,64.1,63.8,29.98,West,276,0.0,0.0,99,0.00,OVC,,0.00,WeatherDisplay:10.37,2013-08-13 10:37:00,
2013-08-13 06:42:00,64.2,64.2,29.98,West,276,0.0,0.0,100,0.00,OVC,,0.00,WeatherDisplay:10.37,2013-08-13 10:42:00,
2013-08-13 06:47:00,64.2,64.2,29.98,West,276,0.0,0.0,100,0.00,OVC,,0.00,WeatherDisplay:10.37,2013-08-13 10:47:00,
2013-08-13 06:52:00,64.1,64.1,29.98,West,276,0.0,0.0,100,0.00,OVC,,0.00,WeatherDisplay:10.37,2013-08-13 10:52:00,
2013-08-13 06:57:00,64.1,64.1,29.98,West,276,0.0,0.0,100,0.00,OVC,,0.00,WeatherDisplay:10.37,2013-08-13 10:57:00,
2013-08-13 07:00:00,64.1,64.1,29.87,North,0,0.0,0.0,100,0.00,,,0.00,WUHU216DAVISVP2,2013-08-13 11:00:00,
2013-08-13 07:02:00,64.1,64.1,29.98,West,276,0.0,0.0,100,0.00,,,0.00,WeatherDisplay:10.37,2013-08-13 11:02:00,
2013-08-13 07:07:00,64.1,64.1,29.98,West,276,0.0,0.0,100,0.00,,,0.00,WeatherDisplay:10.37,2013-08-13 11:07:00,
2013-08-13 07:12:00,64.1,64.1,29.98,West,276,0.0,0.0,100,0.00,,,0.00,WeatherDisplay:10.37,2013-08-13 11:12:00,
2013-08-13 07:17:00,64.2,64.2,29.98,West,276,0.0,0.0,100,0.00,,,0.00,WeatherDisplay:10.37,2013-08-13 11:17:00,
2013-08-13 07:22:00,64.2,64.2,29.98,West,276,0.0,0.0,100,0.00,,,0.00,WeatherDisplay:10.37,2013-08-13 11:22:00,
2013-08-13 07:27:00,64.3,64.3,29.98,West,276,0.0,0.0,100,0.00,,,0.00,WeatherDisplay:10.37,2013-08-13 11:27:00,
2013-08-13 07:30:00,64.3,64.3,29.86,North,0,0.0,0.0,100,0.00,,,0.00,WUHU216DAVISVP2,2013-08-13 11:30:00,
2013-08-13 07:32:00,64.4,64.4,29.98,West,276,0.0,0.0,100,0.00,,,0.00,WeatherDisplay:10.37,2013-08-13 11:32:00,
2013-08-13 07:37:00,64.6,64.6,29.98,West,276,0.0,0.0,100,0.00,,,0.00,WeatherDisplay:10.37,2013-08-13 11:37:00,
2013-08-13 07:42:00,64.8,64.8,29.98,West,276,0.0,0.0,100,0.00,,,0.00,WeatherDisplay:10.37,2013-08-13 11:42:00,
2013-08-13 07:47:00,65.0,65.0,29.98,NW,307,0.3,1.2,100,0.00,,,0.00,WeatherDisplay:10.37,2013-08-13 11:47:00,
2013-08-13 07:52:00,65.1,65.1,29.99,NE,47,0.0,0.0,100,0.00,,,0.00,WeatherDisplay:10.37,2013-08-13 11:52:00,
2013-08-13 07:57:00,65.4,65.4,29.98,NE,47,0.0,0.0,100,0.00,,,0.00,WeatherDisplay:10.37,2013-08-13 11:57:00,
2013-08-13 08:00:00,65.5,65.5,29.87,NE,45,0.0,1.0,100,0.00,,,0.00,WUHU216DAVISVP2,2013-08-13 12:00:00,
2013-08-13 08:02:00,65.6,65.6,29.99,NE,45,0.0,0.0,100,0.00,OVC,,0.00,WeatherDisplay:10.37,2013-08-13 12:02:00,
2013-08-13 08:07:00,65.9,65.9,29.99,NE,44,0.0,0.0,100,0.00,OVC,,0.00,WeatherDisplay:10.37,2013-08-13 12:07:00,
2013-08-13 08:12:00,66.1,66.1,30.00,NE,44,0.0,0.0,100,0.00,OVC,,0.00,WeatherDisplay:10.37,2013-08-13 12:12:00,
2013-08-13 08:17:00,66.4,66.4,29.99,NE,44,0.0,0.0,100,0.00,OVC,,0.00,WeatherDisplay:10.37,2013-08-13 12:17:00,
2013-08-13 08:22:00,66.6,66.6,30.00,NE,44,0.0,0.0,100,0.00,OVC,,0.00,WeatherDisplay:10.37,2013-08-13 12:22:00,
2013-08-13 08:27:00,66.6,66.6,30.00,NE,44,0.0,0.0,100,0.00,OVC,,0.00,WeatherDisplay:10.37,2013-08-13 12:27:00,
2013-08-13 08:30:00,66.7,66.7,29.89,North,0,0.0,0.0,100,0.00,,,0.00,WUHU216DAVISVP2,2013-08-13 12:30:00,
2013-08-13 08:32:00,66.8,66.8,30.00,NE,44,0.0,0.0,100,0.01,OVC,,0.01,WeatherDisplay:10.37,2013-08-13 12:32:00,
2013-08-13 08:37:00,66.8,66.5,30.00,NE,44,0.0,0.0,99,0.01,OVC,,0.01,WeatherDisplay:10.37,2013-08-13 12:37:00,
2013-08-13 08:42:00,66.8,66.5,30.01,NE,44,0.0,0.0,99,0.02,OVC,,0.02,WeatherDisplay:10.37,2013-08-13 12:42:00,
2013-08-13 08:47:00,66.9,66.6,30.01,NE,44,0.0,0.0,99,0.02,OVC,,0.02,WeatherDisplay:10.37,2013-08-13 12:47:00,
2013-08-13 08:52:00,66.9,66.6,30.01,NE,44,0.0,0.0,99,0.02,OVC,,0.02,WeatherDisplay:10.37,2013-08-13 12:52:00,
2013-08-13 08:57:00,66.8,66.5,30.01,NE,44,0.0,0.0,99,0.03,OVC,,0.03,WeatherDisplay:10.37,2013-08-13 12:57:00,
2013-08-13 09:00:00,66.8,66.5,29.90,North,0,0.0,0.0,99,0.00,,,0.00,WUHU216DAVISVP2,2013-08-13 13:00:00,
2013-08-13 09:02:00,66.8,66.5,30.01,NE,44,0.0,0.0,99,0.04,-RA,,0.04,WeatherDisplay:10.37,2013-08-13 13:02:00,
2013-08-13 09:07:00,66.9,66.6,30.01,NE,44,0.0,0.0,99,0.04,-RA,,0.04,WeatherDisplay:10.37,2013-08-13 13:07:00,
2013-08-13 09:12:00,67.0,66.7,30.01,NE,44,0.0,0.0,99,0.04,-RA,,0.04,WeatherDisplay:10.37,2013-08-13 13:12:00,
2013-08-13 09:17:00,67.1,66.8,30.01,NE,44,0.0,0.0,99,0.04,-RA,,0.04,WeatherDisplay:10.37,2013-08-13 13:17:00,
2013-08-13 09:22:00,67.3,67.0,30.01,NE,44,0.0,0.0,99,0.04,-RA,,0.04,WeatherDisplay:10.37,2013-08-13 13:22:00,
2013-08-13 09:28:00,67.4,67.1,30.01,NE,44,0.0,0.0,99,0.04,-RA,,0.04,WeatherDisplay:10.37,2013-08-13 13:28:00,
2013-08-13 09:30:00,67.4,67.1,29.89,NE,45,0.0,1.0,99,0.03,,,0.03,WUHU216DAVISVP2,2013-08-13 13:30:00,
2013-08-13 09:33:00,67.5,67.2,30.00,NE,44,0.0,0.0,99,0.04,-RA,,0.04,WeatherDisplay:10.37,2013-08-13 13:33:00,
2013-08-13 09:38:00,67.7,67.4,30.00,NE,44,0.0,0.0,99,0.03,-RA,,0.04,WeatherDisplay:10.37,2013-08-13 13:38:00,
2013-08-13 09:43:00,68.0,67.4,30.00,NE,44,0.0,0.0,98,0.02,-RA,,0.04,WeatherDisplay:10.37,2013-08-13 13:43:00,
2013-08-13 09:48:00,68.5,67.9,30.00,NE,44,0.0,0.0,98,0.02,-RA,,0.04,WeatherDisplay:10.37,2013-08-13 13:48:00,
2013-08-13 09:53:00,68.8,68.2,30.00,NE,44,0.0,0.0,98,0.02,-RA,,0.04,WeatherDisplay:10.37,2013-08-13 13:53:00,
2013-08-13 09:58:00,69.1,68.5,30.00,NE,44,0.0,0.0,98,0.01,-RA,,0.04,WeatherDisplay:10.37,2013-08-13 13:58:00,
2013-08-13 10:00:00,69.4,68.5,29.87,North,0,0.0,0.0,97,0.01,,,0.05,WUHU216DAVISVP2,2013-08-13 14:00:00,
2013-08-13 10:03:00,69.7,68.8,30.00,NE,44,0.0,0.0,97,0.00,OVC,,0.04,WeatherDisplay:10.37,2013-08-13 14:03:00,
2013-08-13 10:08:00,70.5,69.0,30.00,NE,42,0.0,0.0,95,0.00,OVC,,0.04,WeatherDisplay:10.37,2013-08-13 14:08:00,
2013-08-13 10:13:00,70.7,69.2,30.00,NE,42,0.0,0.0,95,0.00,OVC,,0.04,WeatherDisplay:10.37,2013-08-13 14:13:00,
2013-08-13 10:18:00,70.9,69.7,29.99,NE,42,0.0,0.0,96,0.00,OVC,,0.04,WeatherDisplay:10.37,2013-08-13 14:18:00,
2013-08-13 10:23:00,71.2,69.7,30.00,NE,42,0.0,0.0,95,0.00,OVC,,0.04,WeatherDisplay:10.37,2013-08-13 14:23:00,
2013-08-13 10:28:00,71.3,69.8,30.00,NE,42,0.0,0.0,95,0.00,OVC,,0.04,WeatherDisplay:10.37,2013-08-13 14:28:00,
2013-08-13 10:30:00,71.3,69.8,29.88,North,0,0.0,0.0,95,0.00,,,0.05,WUHU216DAVISVP2,2013-08-13 14:30:00,
2013-08-13 10:33:00,71.3,70.1,30.00,NE,42,0.0,0.0,96,0.00,OVC,,0.04,WeatherDisplay:10.37,2013-08-13 14:33:00,
2013-08-13 10:38:00,71.3,69.8,30.00,NE,42,0.0,0.0,95,0.00,OVC,,0.04,WeatherDisplay:10.37,2013-08-13 14:38:00,
2013-08-13 10:43:00,71.3,70.1,30.00,NE,42,0.0,0.0,96,0.00,OVC,,0.04,WeatherDisplay:10.37,2013-08-13 14:43:00,
2013-08-13 10:48:00,71.5,70.3,30.00,NE,42,0.0,0.0,96,0.00,OVC,,0.04,WeatherDisplay:10.37,2013-08-13 14:48:00,
2013-08-13 10:53:00,71.9,70.4,30.00,NE,42,0.0,0.0,95,0.00,OVC,,0.04,WeatherDisplay:10.37,2013-08-13 14:53:00,
2013-08-13 10:58:00,72.2,70.4,30.00,NE,42,0.3,1.2,94,0.00,OVC,,0.04,WeatherDisplay:10.37,2013-08-13 14:58:00,
2013-08-13 11:00:00,72.2,70.4,29.88,NE,45,0.0,1.0,94,0.00,,,0.05,WUHU216DAVISVP2,2013-08-13 15:00:00,
2013-08-13 11:03:00,72.2,70.4,30.00,NE,40,0.0,1.1,94,0.00,-RA,,0.04,WeatherDisplay:10.37,2013-08-13 15:03:00,
2013-08-13 11:08:00,72.3,70.5,30.00,NE,40,0.0,0.0,94,0.00,-RA,,0.04,WeatherDisplay:10.37,2013-08-13 15:08:00,
2013-08-13 11:13:00,72.1,70.0,30.00,NE,40,0.0,0.0,93,0.00,-RA,,0.04,WeatherDisplay:10.37,2013-08-13 15:13:00,
2013-08-13 11:18:00,72.2,70.7,30.00,NE,40,0.0,0.0,95,0.00,-RA,,0.04,WeatherDisplay:10.37,2013-08-13 15:18:00,
2013-08-13 11:23:00,72.4,70.9,30.00,NE,40,0.0,0.0,95,0.00,-RA,,0.04,WeatherDisplay:10.37,2013-08-13 15:23:00,
2013-08-13 11:28:00,72.4,70.3,30.00,NNE,14,0.3,1.1,93,0.00,-RA,,0.04,WeatherDisplay:10.37,2013-08-13 15:28:00,
2013-08-13 11:30:00,72.1,70.0,29.88,NE,45,0.0,1.0,93,0.00,,,0.05,WUHU216DAVISVP2,2013-08-13 15:30:00,
2013-08-13 11:33:00,72.0,70.2,30.00,NNE,14,0.0,0.0,94,0.00,-RA,,0.04,WeatherDisplay:10.37,2013-08-13 15:33:00,
2013-08-13 11:38:00,71.8,70.0,30.00,NNE,14,0.0,0.0,94,0.00,-RA,,0.04,WeatherDisplay:10.37,2013-08-13 15:38:00,
2013-08-13 11:43:00,71.7,70.2,30.00,NNE,14,0.0,0.0,95,0.00,-RA,,0.04,WeatherDisplay:10.37,2013-08-13 15:43:00,
2013-08-13 11:48:00,71.6,70.1,30.00,NNW,337,0.0,0.0,95,0.00,-RA,,0.04,WeatherDisplay:10.37,2013-08-13 15:48:00,
2013-08-13 11:53:00,71.6,70.1,30.00,NNW,337,0.0,0.0,95,0.00,-RA,,0.04,WeatherDisplay:10.37,2013-08-13 15:53:00,
2013-08-13 11:58:00,71.6,70.1,29.99,NNW,337,0.0,0.0,95,0.00,-RA,,0.04,WeatherDisplay:10.37,2013-08-13 15:58:00,
2013-08-13 12:00:00,71.6,70.1,29.88,NNW,338,0.0,1.0,95,0.00,,,0.05,WUHU216DAVISVP2,2013-08-13 16:00:00,
2013-08-13 12:03:00,71.8,70.3,29.99,NNW,337,0.0,0.0,95,0.00,BKN,,0.04,WeatherDisplay:10.37,2013-08-13 16:03:00,
2013-08-13 12:08:00,72.2,70.4,29.99,NNW,337,0.0,0.0,94,0.00,BKN,,0.04,WeatherDisplay:10.37,2013-08-13 16:08:00,
2013-08-13 12:13:00,72.7,71.2,29.99,NNW,337,0.0,0.0,95,0.00,BKN,,0.04,WeatherDisplay:10.37,2013-08-13 16:13:00,
2013-08-13 12:18:00,72.9,71.1,29.99,WNW,284,0.0,1.2,94,0.00,BKN,,0.04,WeatherDisplay:10.37,2013-08-13 16:18:00,
2013-08-13 12:23:00,72.8,71.0,29.99,WNW,284,0.8,1.2,94,0.00,BKN,,0.04,WeatherDisplay:10.37,2013-08-13 16:23:00,
2013-08-13 12:28:00,72.8,70.7,29.99,SSW,211,1.1,2.3,93,0.00,BKN,,0.04,WeatherDisplay:10.37,2013-08-13 16:28:00,
2013-08-13 12:30:00,72.9,70.4,29.87,WNW,293,0.0,2.0,92,0.00,,,0.05,WUHU216DAVISVP2,2013-08-13 16:30:00,
2013-08-13 12:33:00,73.0,70.9,29.99,SSW,212,0.0,0.0,93,0.00,BKN,,0.04,WeatherDisplay:10.37,2013-08-13 16:33:00,
2013-08-13 12:38:00,73.1,70.6,29.99,SSW,212,1.0,2.3,92,0.00,BKN,,0.04,WeatherDisplay:10.37,2013-08-13 16:38:00,
2013-08-13 12:43:00,73.0,70.5,29.99,SSW,212,0.0,0.0,92,0.00,BKN,,0.04,WeatherDisplay:10.37,2013-08-13 16:43:00,
2013-08-13 12:48:00,73.2,70.7,29.98,SSW,212,0.5,1.2,92,0.00,BKN,,0.04,WeatherDisplay:10.37,2013-08-13 16:48:00,
2013-08-13 12:53:00,73.8,71.0,29.98,SSW,212,0.0,0.0,91,0.00,BKN,,0.04,WeatherDisplay:10.37,2013-08-13 16:53:00,
2013-08-13 12:58:00,74.8,72.0,29.98,SSW,212,0.0,0.0,91,0.00,BKN,,0.04,WeatherDisplay:10.37,2013-08-13 16:58:00,
2013-08-13 13:00:00,75.1,72.3,29.86,SSW,203,0.0,2.0,91,0.00,,,0.05,WUHU216DAVISVP2,2013-08-13 17:00:00,
2013-08-13 13:03:00,75.4,71.9,29.98,WNW,283,0.0,3.5,89,0.00,SCT,,0.04,WeatherDisplay:10.37,2013-08-13 17:03:00,
2013-08-13 13:08:00,75.6,71.8,29.97,WNW,283,1.0,1.1,88,0.00,SCT,,0.04,WeatherDisplay:10.37,2013-08-13 17:08:00,
2013-08-13 13:13:00,75.4,71.9,29.97,WNW,283,0.0,0.0,89,0.00,SCT,,0.04,WeatherDisplay:10.37,2013-08-13 17:13:00,
2013-08-13 13:18:00,75.5,72.0,29.97,WNW,283,0.8,1.2,89,0.00,SCT,,0.04,WeatherDisplay:10.37,2013-08-13 17:18:00,
2013-08-13 13:23:00,76.1,69.8,29.97,SW,223,0.4,4.6,81,0.00,SCT,,0.04,WeatherDisplay:10.37,2013-08-13 17:23:00,
2013-08-13 13:28:00,77.0,71.1,29.96,SW,222,0.9,5.8,82,0.00,SCT,,0.04,WeatherDisplay:10.37,2013-08-13 17:28:00,
2013-08-13 13:30:00,77.0,70.7,29.84,WNW,293,1.0,6.0,81,0.00,,,0.05,WUHU216DAVISVP2,2013-08-13 17:30:00,
2013-08-13 13:33:00,77.3,70.3,29.96,SSW,204,3.8,3.8,79,0.00,SCT,,0.04,WeatherDisplay:10.37,2013-08-13 17:33:00,
2013-08-13 13:39:00,77.0,68.1,29.96,SSW,210,0.6,1.1,74,0.00,SCT,,0.04,WeatherDisplay:10.37,2013-08-13 17:39:00,
2013-08-13 13:44:00,76.7,71.1,29.96,SW,224,0.0,0.0,83,0.00,SCT,,0.04,WeatherDisplay:10.37,2013-08-13 17:44:00,
2013-08-13 13:49:00,76.0,70.8,29.95,SW,227,3.9,6.2,84,0.00,SCT,,0.04,WeatherDisplay:10.37,2013-08-13 17:49:00,
2013-08-13 13:54:00,75.8,69.2,29.95,WSW,242,0.3,2.3,80,0.00,SCT,,0.04,WeatherDisplay:10.37,2013-08-13 17:54:00,
2013-08-13 13:59:00,75.6,70.4,29.95,WSW,242,1.6,4.6,84,0.00,SCT,,0.04,WeatherDisplay:10.37,2013-08-13 17:59:00,
2013-08-13 14:00:00,75.5,70.7,29.83,SW,225,1.0,6.0,85,0.00,,,0.05,WUHU216DAVISVP2,2013-08-13 18:00:00,
2013-08-13 14:04:00,75.5,70.3,29.95,SW,223,2.3,3.7,84,0.00,CLR,,0.04,WeatherDisplay:10.37,2013-08-13 18:04:00,
2013-08-13 14:09:00,75.0,70.5,29.95,SW,236,3.1,4.6,86,0.00,CLR,,0.04,WeatherDisplay:10.37,2013-08-13 18:09:00,
2013-08-13 14:14:00,75.2,70.4,29.95,SW,229,1.4,2.3,85,0.00,CLR,,0.04,WeatherDisplay:10.37,2013-08-13 18:14:00,
2013-08-13 14:19:00,75.1,70.6,29.95,WSW,244,3.0,3.0,86,0.00,CLR,,0.04,WeatherDisplay:10.37,2013-08-13 18:19:00,
2013-08-13 14:24:00,76.3,70.4,29.95,South,184,7.3,7.3,82,0.00,CLR,,0.04,WeatherDisplay:10.37,2013-08-13 18:24:00,
2013-08-13 14:29:00,77.5,70.8,29.95,WSW,248,1.6,2.3,80,0.00,CLR,,0.04,WeatherDisplay:10.37,2013-08-13 18:29:00,
2013-08-13 14:30:00,77.7,69.1,29.83,SW,225,1.0,6.0,75,0.00,,,0.05,WUHU216DAVISVP2,2013-08-13 18:30:00,
2013-08-13 14:34:00,78.1,71.4,29.95,SW,226,3.0,3.5,80,0.00,CLR,,0.04,WeatherDisplay:10.37,2013-08-13 18:34:00,
2013-08-13 14:39:00,78.8,70.6,29.95,SSW,200,0.7,2.3,76,0.00,CLR,,0.04,WeatherDisplay:10.37,2013-08-13 18:39:00,
2013-08-13 14:44:00,79.2,68.1,29.95,SE,135,2.2,4.6,69,0.00,CLR,,0.04,WeatherDisplay:10.37,2013-08-13 18:44:00,
2013-08-13 14:49:00,79.9,70.5,29.94,South,177,1.5,2.5,73,0.00,CLR,,0.04,WeatherDisplay:10.37,2013-08-13 18:49:00,
2013-08-13 14:54:00,80.3,67.9,29.94,East,101,1.6,4.6,66,0.00,CLR,,0.04,WeatherDisplay:10.37,2013-08-13 18:54:00,
2013-08-13 14:59:00,80.4,69.7,29.94,South,175,6.3,10.4,70,0.00,CLR,,0.04,WeatherDisplay:10.37,2013-08-13 18:59:00,
2013-08-13 15:00:00,80.5,67.2,29.82,SW,225,2.0,11.0,64,0.00,,,0.05,WUHU216DAVISVP2,2013-08-13 19:00:00,
2013-08-13 15:04:00,80.7,69.6,29.94,SW,221,3.6,5.8,69,0.00,BKN,,0.04,WeatherDisplay:10.37,2013-08-13 19:04:00,
2013-08-13 15:09:00,81.0,69.4,29.94,South,182,1.8,4.6,68,0.00,BKN,,0.04,WeatherDisplay:10.37,2013-08-13 19:09:00,
2013-08-13 15:14:00,81.5,67.2,29.94,ENE,75,2.6,8.1,62,0.00,BKN,,0.04,WeatherDisplay:10.37,2013-08-13 19:14:00,
2013-08-13 15:19:00,81.7,67.4,29.93,WNW,288,0.8,2.3,62,0.00,BKN,,0.04,WeatherDisplay:10.37,2013-08-13 19:19:00,
2013-08-13 15:24:00,81.6,67.8,29.93,SW,231,0.2,1.1,63,0.00,BKN,,0.04,WeatherDisplay:10.37,2013-08-13 19:24:00,
2013-08-13 15:29:00,81.5,70.8,29.93,East,96,0.0,0.0,70,0.00,BKN,,0.04,WeatherDisplay:10.37,2013-08-13 19:29:00,
2013-08-13 15:30:00,81.7,71.4,29.81,SW,225,1.0,8.0,71,0.00,,,0.05,WUHU216DAVISVP2,2013-08-13 19:30:00,
2013-08-13 15:34:00,81.8,68.9,29.93,East,94,0.0,1.1,65,0.00,BKN,,0.04,WeatherDisplay:10.37,2013-08-13 19:34:00,
2013-08-13 15:39:00,81.8,68.0,29.93,East,79,0.1,3.5,63,0.00,BKN,,0.04,WeatherDisplay:10.37,2013-08-13 19:39:00,
2013-08-13 15:44:00,81.6,72.5,29.93,SW,228,0.4,2.5,74,0.00,BKN,,0.04,WeatherDisplay:10.37,2013-08-13 19:44:00,
2013-08-13 15:49:00,81.2,72.5,29.92,NW,312,0.5,0.0,75,0.00,BKN,,0.04,WeatherDisplay:10.37,2013-08-13 19:49:00,
2013-08-13 15:54:00,80.4,67.1,29.92,NE,56,0.3,4.6,64,0.00,BKN,,0.04,WeatherDisplay:10.37,2013-08-13 19:54:00,
2013-08-13 15:59:00,79.5,71.7,29.92,North,4,0.0,0.0,77,0.00,BKN,,0.04,WeatherDisplay:10.37,2013-08-13 19:59:00,
2013-08-13 16:00:00,79.0,70.8,29.81,SW,225,1.0,4.0,76,0.00,,,0.05,WUHU216DAVISVP2,2013-08-13 20:00:00,
2013-08-13 16:04:00,78.1,71.1,29.92,WNW,296,0.0,1.2,79,0.00,BKN,,0.04,WeatherDisplay:10.37,2013-08-13 20:04:00,
2013-08-13 16:09:00,77.0,70.7,29.92,SW,223,3.2,3.7,81,0.00,BKN,,0.04,WeatherDisplay:10.37,2013-08-13 20:09:00,
2013-08-13 16:14:00,77.0,68.9,29.92,WSW,251,2.0,4.6,76,0.00,BKN,,0.04,WeatherDisplay:10.37,2013-08-13 20:14:00,
2013-08-13 16:19:00,78.0,71.0,29.92,WSW,242,0.0,1.1,79,0.00,BKN,,0.04,WeatherDisplay:10.37,2013-08-13 20:19:00,
2013-08-13 16:24:00,77.7,70.7,29.92,WSW,246,0.0,1.1,79,0.00,BKN,,0.04,WeatherDisplay:10.37,2013-08-13 20:24:00,
2013-08-13 16:29:00,76.7,70.4,29.92,WSW,240,0.0,2.3,81,0.00,BKN,,0.04,WeatherDisplay:10.37,2013-08-13 20:29:00,
2013-08-13 16:30:00,76.4,70.5,29.80,SW,225,1.0,4.0,82,0.00,,,0.05,WUHU216DAVISVP2,2013-08-13 20:30:00,
2013-08-13 16:34:00,76.0,70.8,29.92,WSW,240,1.8,2.3,84,0.00,BKN,,0.04,WeatherDisplay:10.37,2013-08-13 20:34:00,
2013-08-13 16:39:00,75.3,70.8,29.92,WSW,240,1.2,1.2,86,0.00,BKN,,0.04,WeatherDisplay:10.37,2013-08-13 20:39:00,
2013-08-13 16:44:00,75.0,70.9,29.92,WSW,240,0.0,0.0,87,0.00,BKN,,0.04,WeatherDisplay:10.37,2013-08-13 20:44:00,
2013-08-13 16:49:00,74.9,70.8,29.92,WSW,240,0.0,0.0,87,0.00,BKN,,0.04,WeatherDisplay:10.37,2013-08-13 20:49:00,
2013-08-13 16:54:00,74.6,70.1,29.91,WSW,240,1.2,1.2,86,0.00,BKN,,0.04,WeatherDisplay:10.37,2013-08-13 20:54:00,
2013-08-13 16:59:00,74.4,70.3,29.92,WSW,240,1.0,2.5,87,0.00,BKN,,0.04,WeatherDisplay:10.37,2013-08-13 20:59:00,
2013-08-13 17:00:00,74.3,70.5,29.80,WSW,248,0.0,2.0,88,0.00,,,0.05,WUHU216DAVISVP2,2013-08-13 21:00:00,
2013-08-13 17:04:00,74.1,70.6,29.92,WSW,240,0.8,1.1,89,0.00,BKN,,0.04,WeatherDisplay:10.37,2013-08-13 21:04:00,
2013-08-13 17:09:00,73.8,70.4,29.92,WSW,240,0.8,1.2,89,0.00,BKN,,0.04,WeatherDisplay:10.37,2013-08-13 21:09:00,
2013-08-13 17:14:00,73.9,70.8,29.92,WSW,240,0.0,0.0,90,0.00,BKN,,0.04,WeatherDisplay:10.37,2013-08-13 21:14:00,
2013-08-13 17:19:00,74.0,70.9,29.92,WSW,240,0.0,0.0,90,0.00,BKN,,0.04,WeatherDisplay:10.37,2013-08-13 21:19:00,
2013-08-13 17:24:00,73.7,70.3,29.92,WSW,240,0.3,1.1,89,0.00,BKN,,0.04,WeatherDisplay:10.37,2013-08-13 21:24:00,
2013-08-13 17:29:00,73.5,69.7,29.92,WSW,240,0.0,0.0,88,0.00,BKN,,0.04,WeatherDisplay:10.37,2013-08-13 21:29:00,
2013-08-13 17:30:00,73.5,70.1,29.80,WSW,248,0.0,2.0,89,0.00,,,0.05,WUHU216DAVISVP2,2013-08-13 21:30:00,
2013-08-13 17:34:00,73.6,70.5,29.92,WSW,240,0.0,0.0,90,0.00,BKN,,0.04,WeatherDisplay:10.37,2013-08-13 21:34:00,
2013-08-13 17:39:00,73.7,70.3,29.92,WSW,240,0.0,0.0,89,0.00,BKN,,0.04,WeatherDisplay:10.37,2013-08-13 21:39:00,
2013-08-13 17:44:00,73.6,70.5,29.92,WSW,240,0.5,1.1,90,0.00,BKN,,0.04,WeatherDisplay:10.37,2013-08-13 21:44:00,
2013-08-13 17:49:00,73.7,70.6,29.92,WSW,240,0.0,0.0,90,0.00,BKN,,0.04,WeatherDisplay:10.37,2013-08-13 21:49:00,
2013-08-13 17:54:00,73.7,70.3,29.93,WSW,240,0.1,1.1,89,0.00,BKN,,0.04,WeatherDisplay:10.37,2013-08-13 21:54:00,
2013-08-13 17:59:00,73.3,70.2,29.93,WSW,240,0.0,0.0,90,0.00,BKN,,0.04,WeatherDisplay:10.37,2013-08-13 21:59:00,
2013-08-13 18:00:00,73.3,70.5,29.81,WSW,248,0.0,1.0,91,0.00,,,0.05,WUHU216DAVISVP2,2013-08-13 22:00:00,
2013-08-13 18:04:00,73.3,70.5,29.92,WSW,240,0.0,0.0,91,0.00,OVC,,0.04,WeatherDisplay:10.37,2013-08-13 22:04:00,
2013-08-13 18:09:00,73.6,70.8,29.92,WSW,240,0.0,0.0,91,0.00,OVC,,0.04,WeatherDisplay:10.37,2013-08-13 22:09:00,
2013-08-13 18:14:00,73.6,70.8,29.92,WSW,240,0.0,0.0,91,0.00,OVC,,0.04,WeatherDisplay:10.37,2013-08-13 22:14:00,
2013-08-13 18:19:00,73.4,70.0,29.92,WSW,240,0.0,0.0,89,0.00,OVC,,0.04,WeatherDisplay:10.37,2013-08-13 22:19:00,
2013-08-13 18:24:00,73.3,70.5,29.92,WSW,240,0.0,0.0,91,0.00,OVC,,0.04,WeatherDisplay:10.37,2013-08-13 22:24:00,
2013-08-13 18:29:00,73.0,70.2,29.93,WSW,240,0.9,1.1,91,0.00,OVC,,0.04,WeatherDisplay:10.37,2013-08-13 22:29:00,
2013-08-13 18:30:00,72.9,69.8,29.81,WSW,248,0.0,1.0,90,0.00,,,0.05,WUHU216DAVISVP2,2013-08-13 22:30:00,
2013-08-13 18:34:00,72.8,70.0,29.93,WSW,240,0.0,0.0,91,0.00,OVC,,0.04,WeatherDisplay:10.37,2013-08-13 22:34:00,
2013-08-13 18:39:00,72.5,69.4,29.93,WSW,240,0.0,0.0,90,0.00,OVC,,0.04,WeatherDisplay:10.37,2013-08-13 22:39:00,
2013-08-13 18:44:00,72.2,69.4,29.94,WSW,240,0.0,0.0,91,0.00,OVC,,0.04,WeatherDisplay:10.37,2013-08-13 22:44:00,
2013-08-13 18:49:00,71.8,69.0,29.94,WSW,239,0.0,2.3,91,0.00,OVC,,0.04,WeatherDisplay:10.37,2013-08-13 22:49:00,
2013-08-13 18:54:00,71.0,67.6,29.94,WSW,251,0.6,2.5,89,0.01,OVC,,0.05,WeatherDisplay:10.37,2013-08-13 22:54:00,
2013-08-13 18:59:00,70.0,66.0,29.95,WNW,295,2.4,2.4,87,0.01,OVC,,0.05,WeatherDisplay:10.37,2013-08-13 22:59:00,
2013-08-13 19:00:00,69.9,65.9,29.83,WSW,248,1.0,9.0,87,0.00,,,0.05,WUHU216DAVISVP2,2013-08-13 23:00:00,
2013-08-13 19:04:00,69.6,66.2,29.95,ENE,76,0.1,0.0,89,0.02,BKN,,0.06,WeatherDisplay:10.37,2013-08-13 23:04:00,
2013-08-13 19:09:00,68.9,66.5,29.95,ENE,76,0.0,0.0,92,0.02,BKN,,0.06,WeatherDisplay:10.37,2013-08-13 23:09:00,
2013-08-13 19:14:00,68.2,66.1,29.95,ENE,77,0.0,0.0,93,0.02,BKN,,0.06,WeatherDisplay:10.37,2013-08-13 23:14:00,
2013-08-13 19:19:00,67.8,66.3,29.95,ENE,77,0.1,0.0,95,0.02,BKN,,0.06,WeatherDisplay:10.37,2013-08-13 23:19:00,
2013-08-13 19:24:00,67.5,66.0,29.95,ENE,75,0.0,0.0,95,0.02,BKN,,0.06,WeatherDisplay:10.37,2013-08-13 23:24:00,
2013-08-13 19:29:00,67.3,66.1,29.95,ENE,76,0.4,1.2,96,0.02,BKN,,0.06,WeatherDisplay:10.37,2013-08-13 23:29:00,
2013-08-13 19:30:00,67.3,66.1,29.84,ENE,68,0.0,2.0,96,0.01,,,0.06,WUHU216DAVISVP2,2013-08-13 23:30:00,
2013-08-13 19:34:00,67.1,65.6,29.95,West,264,0.3,1.1,95,0.02,BKN,,0.06,WeatherDisplay:10.37,2013-08-13 23:34:00,
2013-08-13 19:39:00,67.0,65.8,29.95,West,264,0.0,0.0,96,0.03,BKN,,0.08,WeatherDisplay:10.37,2013-08-13 23:39:00,
2013-08-13 19:44:00,67.1,66.2,29.96,West,264,0.0,0.0,97,0.03,BKN,,0.08,WeatherDisplay:10.37,2013-08-13 23:44:00,
2013-08-13 19:49:00,67.0,66.1,29.96,West,264,0.0,1.1,97,0.03,BKN,,0.08,WeatherDisplay:10.37,2013-08-13 23:49:00,
2013-08-13 19:54:00,67.1,66.2,29.96,West,264,0.0,0.0,97,0.02,BKN,,0.08,WeatherDisplay:10.37,2013-08-13 23:54:00,
2013-08-13 19:59:00,67.0,66.1,29.96,West,264,0.0,0.0,97,0.02,BKN,,0.08,WeatherDisplay:10.37,2013-08-13 23:59:00,
2013-08-13 20:00:00,67.0,66.1,29.84,ENE,68,0.0,2.0,97,0.01,,,0.07,WUHU216DAVISVP2,2013-08-14 00:00:00,
2013-08-13 20:04:00,67.0,66.1,29.96,West,264,0.0,0.0,97,0.01,BKN,,0.08,WeatherDisplay:10.37,2013-08-14 00:04:00,
2013-08-13 20:09:00,66.9,66.0,29.96,West,264,0.0,0.0,97,0.01,BKN,,0.08,WeatherDisplay:10.37,2013-08-14 00:09:00,
2013-08-13 20:14:00,66.9,66.0,29.96,West,264,0.0,0.0,97,0.01,BKN,,0.08,WeatherDisplay:10.37,2013-08-14 00:14:00,
2013-08-13 20:19:00,66.8,65.9,29.96,West,264,0.7,1.1,97,0.01,BKN,,0.08,WeatherDisplay:10.37,2013-08-14 00:19:00,
2013-08-13 20:24:00,66.7,65.8,29.96,West,264,0.0,0.0,97,0.01,BKN,,0.08,WeatherDisplay:10.37,2013-08-14 00:24:00,
2013-08-13 20:29:00,66.6,65.7,29.96,West,264,0.0,0.0,97,0.01,BKN,,0.08,WeatherDisplay:10.37,2013-08-14 00:29:00,
2013-08-13 20:30:00,66.5,65.6,29.85,West,270,0.0,1.0,97,0.01,,,0.08,WUHU216DAVISVP2,2013-08-14 00:30:00,
2013-08-13 20:34:00,66.5,65.6,29.96,West,264,0.0,0.0,97,0.01,BKN,,0.08,WeatherDisplay:10.37,2013-08-14 00:34:00,
2013-08-13 20:39:00,66.4,65.5,29.96,West,264,0.0,0.0,97,0.00,BKN,,0.08,WeatherDisplay:10.37,2013-08-14 00:39:00,
2013-08-13 20:44:00,66.4,65.8,29.96,West,264,0.0,0.0,98,0.00,BKN,,0.08,WeatherDisplay:10.37,2013-08-14 00:44:00,
2013-08-13 20:49:00,66.5,65.9,29.95,West,264,0.0,0.0,98,0.00,BKN,,0.08,WeatherDisplay:10.37,2013-08-14 00:49:00,
2013-08-13 20:54:00,66.4,65.8,29.95,West,264,0.0,0.0,98,0.00,BKN,,0.08,WeatherDisplay:10.37,2013-08-14 00:54:00,
2013-08-13 20:59:00,66.2,65.3,29.96,West,264,0.0,0.0,97,0.00,BKN,,0.08,WeatherDisplay:10.37,2013-08-14 00:59:00,
2013-08-13 21:00:00,66.2,65.6,29.85,West,270,0.0,1.0,98,0.00,,,0.08,WUHU216DAVISVP2,2013-08-14 01:00:00,
2013-08-13 21:04:00,66.2,65.6,29.95,West,264,0.0,1.1,98,0.00,-RA,,0.08,WeatherDisplay:10.37,2013-08-14 01:04:00,
2013-08-13 21:09:00,66.1,65.5,29.96,West,264,0.1,1.2,98,0.00,-RA,,0.08,WeatherDisplay:10.37,2013-08-14 01:09:00,
2013-08-13 21:14:00,66.1,65.5,29.96,West,264,0.0,0.0,98,0.00,-RA,,0.08,WeatherDisplay:10.37,2013-08-14 01:14:00,
2013-08-13 21:19:00,66.1,65.5,29.96,West,264,0.0,0.0,98,0.00,-RA,,0.08,WeatherDisplay:10.37,2013-08-14 01:19:00,
2013-08-13 21:24:00,66.1,65.5,29.96,West,264,0.0,0.0,98,0.00,-RA,,0.08,WeatherDisplay:10.37,2013-08-14 01:24:00,
2013-08-13 21:29:00,66.1,65.5,29.96,West,264,0.0,0.0,98,0.00,-RA,,0.08,WeatherDisplay:10.37,2013-08-14 01:29:00,
2013-08-13 21:30:00,66.0,65.4,29.85,West,270,0.0,1.0,98,0.00,,,0.08,WUHU216DAVISVP2,2013-08-14 01:30:00,
2013-08-13 21:34:00,65.9,65.3,29.95,West,264,0.0,0.0,98,0.00,-RA,,0.08,WeatherDisplay:10.37,2013-08-14 01:34:00,
2013-08-13 21:39:00,65.9,65.3,29.96,West,264,0.0,0.0,98,0.00,-RA,,0.08,WeatherDisplay:10.37,2013-08-14 01:39:00,
2013-08-13 21:44:00,65.8,65.2,29.96,West,264,0.0,0.0,98,0.00,-RA,,0.08,WeatherDisplay:10.37,2013-08-14 01:44:00,
2013-08-13 21:49:00,65.6,65.0,29.96,West,264,0.0,0.0,98,0.00,-RA,,0.08,WeatherDisplay:10.37,2013-08-14 01:49:00,
2013-08-13 21:54:00,65.5,64.9,29.96,West,264,0.0,0.0,98,0.00,-RA,,0.08,WeatherDisplay:10.37,2013-08-14 01:54:00,
2013-08-13 21:59:00,65.5,64.9,29.96,West,264,0.0,0.0,98,0.00,-RA,,0.08,WeatherDisplay:10.37,2013-08-14 01:59:00,
2013-08-13 22:00:00,65.4,64.8,29.85,West,270,0.0,1.0,98,0.00,,,0.08,WUHU216DAVISVP2,2013-08-14 02:00:00,
2013-08-13 22:04:00,65.4,64.8,29.97,West,264,0.1,1.1,98,0.00,BKN,,0.08,WeatherDisplay:10.37,2013-08-14 02:04:00,
2013-08-13 22:09:00,65.2,64.6,29.97,West,264,0.0,0.0,98,0.00,BKN,,0.08,WeatherDisplay:10.37,2013-08-14 02:09:00,
2013-08-13 22:14:00,65.2,64.6,29.97,West,264,0.0,0.0,98,0.00,BKN,,0.08,WeatherDisplay:10.37,2013-08-14 02:14:00,
2013-08-13 22:19:00,65.2,64.6,29.97,West,264,0.0,0.0,98,0.00,BKN,,0.08,WeatherDisplay:10.37,2013-08-14 02:19:00,
2013-08-13 22:24:00,65.1,64.5,29.97,West,264,0.7,1.1,98,0.00,BKN,,0.08,WeatherDisplay:10.37,2013-08-14 02:24:00,
2013-08-13 22:29:00,65.1,64.5,29.97,West,264,0.0,0.0,98,0.00,BKN,,0.08,WeatherDisplay:10.37,2013-08-14 02:29:00,
2013-08-13 22:30:00,65.1,64.5,29.86,West,270,0.0,1.0,98,0.00,,,0.08,WUHU216DAVISVP2,2013-08-14 02:30:00,
2013-08-13 22:35:00,65.0,64.4,29.98,West,264,0.0,0.0,98,0.00,BKN,,0.08,WeatherDisplay:10.37,2013-08-14 02:35:00,
2013-08-13 22:40:00,64.9,64.3,29.97,West,264,0.0,0.0,98,0.00,BKN,,0.08,WeatherDisplay:10.37,2013-08-14 02:40:00,
2013-08-13 22:45:00,64.9,64.3,29.98,West,264,1.2,1.2,98,0.00,BKN,,0.08,WeatherDisplay:10.37,2013-08-14 02:45:00,
2013-08-13 22:50:00,64.8,64.5,29.98,West,264,0.9,1.2,99,0.00,BKN,,0.08,WeatherDisplay:10.37,2013-08-14 02:50:00,
2013-08-13 22:55:00,64.7,64.4,29.98,West,264,0.0,0.0,99,0.00,BKN,,0.08,WeatherDisplay:10.37,2013-08-14 02:55:00,
2013-08-13 23:00:00,64.7,64.4,29.98,West,264,0.0,0.0,99,0.00,BKN,,0.08,WeatherDisplay:10.37,2013-08-14 03:00:00,
2013-08-13 23:05:00,64.7,64.4,29.98,West,264,1.1,1.2,99,0.00,BKN,,0.08,WeatherDisplay:10.37,2013-08-14 03:05:00,
2013-08-13 23:10:00,64.6,64.3,29.98,West,264,0.0,0.0,99,0.00,BKN,,0.08,WeatherDisplay:10.37,2013-08-14 03:10:00,
2013-08-13 23:15:00,64.6,64.3,29.98,West,264,0.2,1.1,99,0.00,BKN,,0.08,WeatherDisplay:10.37,2013-08-14 03:15:00,
2013-08-13 23:20:00,64.5,64.2,29.98,West,264,0.8,1.1,99,0.00,BKN,,0.08,WeatherDisplay:10.37,2013-08-14 03:20:00,
2013-08-13 23:25:00,64.5,64.2,29.98,West,261,1.0,1.2,99,0.00,BKN,,0.08,WeatherDisplay:10.37,2013-08-14 03:25:00,
2013-08-13 23:30:00,64.5,64.2,29.98,West,261,0.0,0.0,99,0.00,BKN,,0.08,WeatherDisplay:10.37,2013-08-14 03:30:00,
2013-08-13 23:35:00,64.4,64.1,29.98,West,261,0.0,0.0,99,0.00,BKN,,0.08,WeatherDisplay:10.37,2013-08-14 03:35:00,
2013-08-13 23:40:00,64.3,64.0,29.98,West,261,0.0,0.0,99,0.00,BKN,,0.08,WeatherDisplay:10.37,2013-08-14 03:40:00,
2013-08-13 23:45:00,64.2,63.9,29.98,West,261,2.0,2.3,99,0.00,BKN,,0.08,WeatherDisplay:10.37,2013-08-14 03:45:00,
2013-08-13 23:50:00,64.2,63.9,29.98,West,261,0.0,0.0,99,0.00,BKN,,0.08,WeatherDisplay:10.37,2013-08-14 03:50:00,
2013-08-13 23:55:00,64.1,63.8,29.98,West,260,0.0,0.0,99,0.00,BKN,,0.08,WeatherDisplay:10.37,2013-08-14 03:55:00,